Regional Weather Roundup
Issued by NWS

Home | Current Version | Previous Version | Text Only | Print | Product List | Glossary Off
Versions: 1 2 3 4 5 6 7 8 9 10 11 12 13 14 15 16 17 18 19 20 21 22 23 24 25 26 27

000
ASUS45 KSLC 240510
RWRUT

UTAH REGIONAL WEATHER ROUNDUP
NATIONAL WEATHER SERVICE SALT LAKE CITY UT
1100 PM MDT TUE AUG 23 2016

UTZ001>011-023>025-240600-

NORTHERN UTAH

CITY           SKY/WX    TMP DP  RH WIND       PRES   REMARKS
BRIGHAM CITY     N/A     75   7   7 NW3       30.10S
HILL AFB       CLEAR     71  23  16 NE3       30.11R
LOGAN          CLEAR     61  27  27 CALM      30.13R
OGDEN          CLEAR     74  17  11 NE9       30.08S
PROVO AIRPORT  CLEAR     66  43  42 W3        30.09R
SALT LAKE CITY PTCLDY    75  35  23 N6        30.06R
VERNAL         CLOUDY    68  42  38 NW7       30.16R
WENDOVER       CLEAR     75  21  13 E10G22    30.11R
HEBER CITY     CLEAR     52  37  58 SE3       30.15R
WEST JORDAN    CLEAR     72  30  21 W12       30.10R

$$

UTZ012>022-026-027-240600-

SOUTHERN/CENTRAL UTAH

CITY           SKY/WX    TMP DP  RH WIND       PRES   REMARKS
BLANDING       MOCLDY    56  49  78 NE6       30.33S
BRYCE CANYON   CLOUDY    56  42  59 N21G30    30.39R
CEDAR CITY     CLOUDY    68  37  32 NE13      30.23R
DELTA          MOCLDY    72  37  28 S9        30.12R
MILFORD        LGT RAIN  71  44  37 S15       30.17S
MOAB/CYNLANDS  CLOUDY    65  56  72 E8        30.13R
PRICE          CLOUDY    63  42  46 CALM      30.24R
ST GEORGE      CLEAR     79  46  31 SW7       30.07R

$$

REGIONAL REPORTS     COLORADO/ARIZONA

CITY           SKY/WX    TMP DP  RH WIND       PRES   REMARKS
CRAIG, CO      CLOUDY    61  42  49 E8        30.25R
GRAND JUNCTION CLOUDY    68  48  48 SE23G29   30.19R
RIFLE          CLOUDY    58  54  86 N5        30.27S
MONTROSE       RAIN      57  51  80 E7        30.32R
CORTEZ         CLOUDY    54  52  93 CALM      30.28R
PAGE, AZ       CLOUDY    72  50  45 E3        30.16R
GRAND CANYON   CLOUDY    59  52  77 SE5       30.34R
KINGMAN        CLEAR     72  61  68 CALM      30.11R
FLAGSTAFF      CLOUDY    52  51  97 CALM      30.36R

$$

REGIONAL REPORTS    NEVADA/IDAHO/WYOMING

CITY           SKY/WX    TMP DP  RH WIND       PRES   REMARKS
LAS VEGAS, NV  MOCLDY    87  54  32 N8        29.98R
ELY            PTCLDY    56  35  45 S9        30.24R
ELKO           CLEAR     68  16  13 E3        30.16R
POCATELLO, ID  CLEAR     63  20  19 S10       30.13R
BURLEY         CLEAR     58  31  35 SE8       30.12R
EVANSTON, WY   CLEAR     60  21  22 N7        30.28R
ROCK SPRINGS   CLOUDY    60  13  15 N5        30.24R

$$




USA.gov is the U.S. government's official web portal to all federal, state and local government web resources and services.